Flag for Sweden Weather past 2 weeks in Helsingborg, Sweden

Now
39 °F

Passing clouds.


Feels Like: 35 °F
Forecast: 36 / 41 °F
Wind: 6 mph from South

Location: Ljungbyhed

Current Time: Mar 2, 2015 at 3:03:59 AM

Latest Report: Mar 2, 2015 at 2:20 AM


Visibility: N/A

Pressure: 29.36 "Hg

Humidity: 87%

Dew point: 36 °F

Location of HelsingborgLocation

Historic Weather in Helsingborg — Graph

°F

Helsingborg temperature yesterday

Maximum temperature yesterday: 41 °F (at 4:50 PM)
Minimum temperature yesterday: 34 °F (at 12:50 AM)
Average temperature yesterday: 37 °F

Past Weeks' High & Low Weather Summary

 TemperatureHumidityPressure
High46 °F (Feb 18, 12:50 PM)100% (Feb 18, 3:50 AM)30.48 "Hg (Feb 18, 3:50 AM)
Low27 °F (Feb 26, 5:50 AM)57% (Feb 26, 2:50 PM)29.15 "Hg (Feb 21, 5:20 PM)
Average37 °F87%29.89 "Hg
* Reported Feb 15 1:20 AM — Mar 2 1:50 AM, Helsingborg, Weather by CustomWeather, © 2015

Note: Actual official high and low records may vary slightly from our data, if they occured in-between our weather recording intervals... More about our weather records

Advertising

Helsingborg weather history for previous 24 hours

 ConditionsComfort  
Time TempWeatherWind HumidityBarometerVisibility
1:50 AM
Mon, Mar 2
39 °FFog.8 mph93%29.36 "Hg6 mi
1:20 AM39 °FOvercast.9 mph93%29.36 "HgN/A
12:50 AM39 °FFog.9 mph93%29.36 "Hg6 mi
12:20 AM39 °FPassing clouds.9 mph93%29.36 "HgN/A
11:50 PM
Sun, Mar 1
39 °FOvercast.9 mph93%29.36 "HgN/A
11:20 PM41 °FPartly cloudy.10 mph87%29.36 "HgN/A
10:50 PM39 °FPartly cloudy.10 mph93%29.36 "HgN/A
10:20 PM39 °FPassing clouds.9 mph93%29.36 "HgN/A
9:50 PM41 °FPartly cloudy.14 mph87%29.36 "HgN/A
9:20 PM41 °FLight rain. Passing clouds.13 mph87%29.36 "Hg5 mi
8:20 PM41 °FPartly cloudy.12 mph93%29.36 "HgN/A
7:50 PM41 °FPassing clouds.12 mph93%29.36 "HgN/A
7:20 PM41 °FPassing clouds.12 mph93%29.36 "HgN/A
6:50 PM41 °FPassing clouds.13 mph93%29.36 "HgN/A
6:20 PM41 °FPartly cloudy.12 mph93%29.36 "HgN/A
5:50 PM41 °FFog.9 mph93%29.36 "Hg6 mi
5:20 PM41 °FMore clouds than sun.10 mph93%29.36 "HgN/A
4:50 PM41 °FFog.12 mph93%29.36 "Hg5 mi
4:20 PM39 °FFog.12 mph100%29.36 "Hg3 mi
3:50 PM39 °FFog.13 mph93%29.36 "Hg4 mi
3:20 PM37 °FFog.13 mph100%29.36 "Hg2 mi
2:50 PM37 °FLight rain. Low clouds.12 mph93%29.36 "Hg3 mi
2:20 PM36 °FLight rain. Broken clouds.12 mph100%29.36 "Hg2 mi
1:50 PM36 °FLight rain. Broken clouds.13 mph100%29.36 "Hg5 mi
1:20 PM36 °FLight rain. Mostly cloudy.14 mph93%29.39 "Hg4 mi
12:50 PM36 °FLight rain. Mostly cloudy.15 mph93%29.39 "Hg3 mi
12:20 PM34 °FLight rain. Mostly cloudy.15 mph100%29.42 "Hg1 mi
11:50 AM34 °FLight snow. Low clouds.15 mph100%29.42 "Hg1 mi
11:20 AM36 °FLight rain. Low clouds.15 mph93%29.42 "Hg2 mi
10:50 AM36 °FLight rain. Broken clouds.14 mph93%29.45 "Hg2 mi
10:20 AM36 °FLight rain. Partly sunny.15 mph93%29.45 "Hg2 mi
9:50 AM37 °FLight rain. Broken clouds.17 mph81%29.45 "Hg5 mi
9:20 AM37 °FLight rain. Passing clouds.16 mph75%29.47 "HgN/A
8:50 AM37 °FPassing clouds.17 mph75%29.47 "HgN/A
8:20 AM37 °FChilly.16 mph75%29.50 "HgN/A
7:50 AM37 °FPassing clouds.16 mph75%29.50 "HgN/A
7:20 AM37 °FPassing clouds.15 mph75%29.53 "HgN/A
6:50 AM37 °FChilly.13 mph75%29.56 "HgN/A
6:20 AM36 °FChilly.12 mph81%29.56 "HgN/A
5:50 AM36 °FChilly.13 mph81%29.59 "HgN/A
5:20 AM36 °FChilly.12 mph81%29.62 "HgN/A
4:50 AM36 °FChilly.12 mph81%29.62 "HgN/A
4:20 AM34 °FChilly.9 mph87%29.62 "HgN/A
3:50 AM34 °FChilly.7 mph87%29.65 "HgN/A
3:20 AM34 °FChilly.9 mph87%29.68 "HgN/A
Weather by CustomWeather, © 2015

See weather overviewHow to use our weather pages